Weather History for Delta, CO

Change the Weather History Date:

Thursday, September 27, 2012

  Actual Average (KMTJ) Record (KMTJ)
Temperature  
Mean Temperature 59 °F 58 °F  
Max Temperature 72 °F 73 °F 87 °F (2001)
Min Temperature 46 °F 43 °F 30 °F (1996)
Degree Days  
Heating Degree Days 6 7  
Month to date heating degree days 96  
Since 1 July heating degree days 101  
Cooling Degree Days 0 0  
Month to date cooling degree days 37  
Year to date cooling degree days 642  
Growing Degree Days 9 (Base 50)    
Moisture  
Dew Point 46 °F    
Average Humidity 69    
Maximum Humidity 95    
Minimum Humidity 33    
Precipitation  
Precipitation 0.00 in 0.04 in 0.13 in (2013)
Month to date precipitation 1.18  
Year to date precipitation 8.51  
Sea Level Pressure  
Sea Level Pressure 30.23 in    
Wind  
Wind Speed 3 mph ()    
Max Wind Speed 13 mph    
Max Gust Speed 18 mph    
Visibility 10.0 miles    
Events      
T = Trace of Precipitation, MM = Missing Value Source: Averaged Metar Reports

Daily Weather History Graph

Daily Weather History Graph

Search for Another Location

Airport:

Trip Planner

Search our weather history database for the weather conditions in past years. The results will help you decide how hot, cold, wet, or windy it might be!

Date:

Astronomy

Sep. 27, 2012 Rise Set
Actual Time 7:05 AM MDT 7:00 PM MDT
Civil Twilight 6:38 AM MDT 7:26 PM MDT
Nautical Twilight 6:07 AM MDT 7:57 PM MDT
Astronomical Twilight 5:36 AM MDT 8:28 PM MDT
Moon 5:32 PM MDT (9/27) 4:38 AM MDT (9/27)
Length of Visible Light 12h 48m
Length of Day
11h 55m
Waxing Gibbous, 94% of the Moon is Illuminated
Sep 27
Waxing Gibbous
Sep 29
Full
Oct 8
Last Quarter
Oct 15
New
Oct 21
First Quarter

Hourly Weather History & Observations

Time (MDT) Temp. Windchill Dew Point Humidity Pressure Visibility Wind Dir Wind Speed Gust Speed Precip Events Conditions
12:15 AM 47.5 °F - 45.9 °F 94% 30.23 in 10.0 mi NE 5.8 mph - N/A   Unknown
12:35 AM 48.4 °F - 46.6 °F 93% 30.23 in 10.0 mi ENE 3.5 mph - N/A   Unknown
1:15 AM 48.2 °F - 45.9 °F 92% 30.23 in 10.0 mi NNE 4.6 mph - N/A   Unknown
1:35 AM 48.4 °F - 45.7 °F 90% 30.23 in 10.0 mi NNE 5.8 mph - N/A   Unknown
1:55 AM 48.2 °F - 45.5 °F 90% 30.23 in 10.0 mi North 4.6 mph - N/A   Unknown
2:15 AM 48.6 °F - 45.5 °F 89% 30.23 in 10.0 mi North 5.8 mph - N/A   Unknown
2:35 AM 48.2 °F - 45.1 °F 89% 30.23 in 10.0 mi NNE 3.5 mph - N/A   Unknown
2:55 AM 47.5 °F - 45.5 °F 93% 30.23 in 10.0 mi Calm Calm - N/A   Unknown
3:15 AM 47.3 °F - 45.7 °F 94% 30.23 in 10.0 mi Calm Calm - N/A   Unknown
3:35 AM 47.5 °F - 46.0 °F 95% 30.23 in 10.0 mi Calm Calm - N/A   Unknown
3:55 AM 47.5 °F - 45.7 °F 93% 30.24 in 10.0 mi Calm Calm - N/A   Unknown
4:15 AM 48.0 °F - 45.7 °F 92% 30.24 in 10.0 mi NE 4.6 mph - N/A   Unknown
4:35 AM 48.2 °F - 45.9 °F 92% 30.25 in 10.0 mi NE 3.5 mph - N/A   Unknown
4:55 AM 48.4 °F - 45.9 °F 91% 30.25 in 10.0 mi Calm Calm - N/A   Unknown
5:15 AM 48.6 °F - 46.0 °F 91% 30.25 in 10.0 mi Calm Calm - N/A   Unknown
5:35 AM 48.2 °F - 46.2 °F 93% 30.25 in 10.0 mi Calm Calm - N/A   Unknown
5:55 AM 48.2 °F - 46.4 °F 93% 30.26 in 10.0 mi Calm Calm - N/A   Unknown
6:15 AM 47.5 °F - 45.9 °F 94% 30.26 in 10.0 mi Calm Calm - N/A   Unknown
6:35 AM 46.9 °F - 45.5 °F 95% 30.26 in 10.0 mi North 3.5 mph - N/A   Unknown
6:55 AM 46.9 °F - 45.0 °F 93% 30.25 in 10.0 mi NNE 5.8 mph - N/A   Unknown
7:15 AM 46.4 °F 45.2 °F 44.2 °F 92% 30.25 in 10.0 mi NNE 3.5 mph - N/A   Unknown
7:35 AM 46.2 °F - 44.4 °F 93% 30.26 in 10.0 mi Calm Calm - N/A   Unknown
7:55 AM 49.1 °F - 45.5 °F 87% 30.27 in 10.0 mi Calm Calm - N/A   Unknown
8:15 AM 49.3 °F - 45.9 °F 88% 30.27 in 10.0 mi Calm Calm - N/A   Unknown
8:35 AM 50.9 °F - 45.1 °F 81% 30.28 in 10.0 mi Calm Calm - N/A   Unknown
8:55 AM 51.6 °F - 45.7 °F 80% 30.28 in 10.0 mi Calm Calm - N/A   Unknown
9:15 AM 52.2 °F - 46.6 °F 81% 30.28 in 10.0 mi Calm Calm - N/A   Unknown
9:35 AM 52.7 °F - 46.8 °F 80% 30.28 in 10.0 mi Calm Calm - N/A   Unknown
9:55 AM 53.8 °F - 47.5 °F 79% 30.28 in 10.0 mi Calm Calm - N/A   Unknown
10:15 AM 55.8 °F - 48.0 °F 75% 30.28 in 10.0 mi Calm Calm - N/A   Unknown
10:35 AM 56.8 °F - 48.2 °F 73% 30.28 in 10.0 mi SSE 3.5 mph - N/A   Unknown
10:55 AM 58.1 °F - 48.9 °F 71% 30.28 in 10.0 mi ESE 3.5 mph - N/A   Unknown
11:15 AM 58.5 °F - 48.9 °F 71% 30.27 in 10.0 mi East 3.5 mph - N/A   Unknown
11:35 AM 60.8 °F - 48.0 °F 63% 30.27 in 10.0 mi Calm Calm - N/A   Unknown
11:55 AM 61.9 °F - 48.0 °F 60% 30.26 in 10.0 mi Calm Calm - N/A   Unknown
12:15 PM 62.6 °F - 47.7 °F 58% 30.26 in 10.0 mi Calm Calm - N/A   Unknown
12:35 PM 63.7 °F - 45.3 °F 51% 30.25 in 10.0 mi Calm Calm - N/A   Unknown
12:55 PM 65.5 °F - 45.9 °F 49% 30.25 in 10.0 mi ENE 3.5 mph - N/A   Unknown
1:15 PM 66.2 °F - 45.3 °F 47% 30.25 in 10.0 mi Calm Calm - N/A   Unknown
1:35 PM 68.4 °F - 44.4 °F 42% 30.23 in 10.0 mi Calm Calm - N/A   Unknown
1:55 PM 67.6 °F - 42.3 °F 40% 30.22 in 10.0 mi ESE 3.5 mph - N/A   Unknown
2:15 PM 68.7 °F - 42.8 °F 39% 30.22 in 10.0 mi Calm Calm - N/A   Unknown
2:35 PM 70.2 °F - 44.8 °F 40% 30.22 in 10.0 mi SSW 6.9 mph - N/A   Unknown
2:55 PM 70.0 °F - 44.6 °F 40% 30.21 in 10.0 mi West 3.5 mph - N/A   Unknown
3:15 PM 70.9 °F - 45.1 °F 40% 30.21 in 10.0 mi SW 9.2 mph - N/A   Unknown
3:35 PM 71.2 °F - 43.9 °F 37% 30.20 in 10.0 mi SW 12.7 mph 18.4 mph N/A   Unknown
3:55 PM 71.6 °F - 40.8 °F 33% 30.20 in 10.0 mi SW 9.2 mph - N/A   Unknown
4:15 PM 72.0 °F - 41.2 °F 33% 30.20 in 10.0 mi SSW 10.4 mph - N/A   Unknown
4:35 PM 71.4 °F - 41.0 °F 33% 30.20 in 10.0 mi SSW 9.2 mph - N/A   Unknown
4:55 PM 70.7 °F - 44.4 °F 39% 30.19 in 10.0 mi SSW 9.2 mph - N/A   Unknown
5:15 PM 70.3 °F - 44.2 °F 39% 30.19 in 10.0 mi South 6.9 mph - N/A   Unknown
5:35 PM 70.7 °F - 43.9 °F 38% 30.19 in 10.0 mi SSW 5.8 mph - N/A   Unknown
5:55 PM 69.8 °F - 45.1 °F 41% 30.19 in 10.0 mi SSW 8.1 mph - N/A   Unknown
6:15 PM 68.9 °F - 45.7 °F 43% 30.19 in 10.0 mi South 4.6 mph - N/A   Unknown
6:35 PM 68.2 °F - 45.7 °F 44% 30.19 in 10.0 mi South 4.6 mph - N/A   Unknown
6:55 PM 66.6 °F - 46.8 °F 49% 30.19 in 10.0 mi SSE 3.5 mph - N/A   Unknown
7:15 PM 64.8 °F - 49.1 °F 57% 30.19 in 10.0 mi SE 4.6 mph - N/A   Unknown
7:35 PM 63.5 °F - 48.6 °F 58% 30.20 in 10.0 mi Calm Calm - N/A   Unknown
7:55 PM 61.5 °F - 49.3 °F 64% 30.20 in 10.0 mi NE 3.5 mph - N/A   Unknown
8:15 PM 62.1 °F - 48.0 °F 60% 30.20 in 10.0 mi NNE 3.5 mph - N/A   Unknown
8:35 PM 59.9 °F - 48.4 °F 66% 30.20 in 10.0 mi North 5.8 mph - N/A   Unknown
8:55 PM 58.8 °F - 48.2 °F 68% 30.21 in 10.0 mi NNE 5.8 mph - N/A   Unknown
9:15 PM 57.7 °F - 47.5 °F 69% 30.21 in 10.0 mi NNE 6.9 mph - N/A   Unknown
9:35 PM 57.6 °F - 47.3 °F 69% 30.22 in 10.0 mi North 6.9 mph - N/A   Unknown
9:55 PM 57.9 °F - 47.3 °F 68% 30.23 in 10.0 mi North 3.5 mph - N/A   Unknown
10:15 PM 56.3 °F - 47.3 °F 72% 30.23 in 10.0 mi East 5.8 mph - N/A   Unknown
10:35 PM 55.9 °F - 45.5 °F 68% 30.23 in 10.0 mi ENE 6.9 mph - N/A   Unknown
10:55 PM 54.9 °F - 45.5 °F 71% 30.23 in 10.0 mi NE 5.8 mph - N/A   Unknown
11:15 PM 53.8 °F - 45.5 °F 74% 30.23 in 10.0 mi ENE 6.9 mph - N/A   Unknown
11:35 PM 54.5 °F - 45.0 °F 70% 30.23 in 10.0 mi NE 6.9 mph - N/A   Unknown
11:55 PM 54.3 °F - 45.0 °F 71% 30.23 in 10.0 mi NE 5.8 mph - N/A   Unknown